QPF
0.01 0.00 0.01 0.01 0.00 0.00 0.01 0.01 0.01 0.00 0.00 0.00 0.00 0.01 0.00 0.00 0.00 0.00 0.00 0.00 0.00 0.00 0.00 0.00 0.01 0.01 0.01 0.02 0.03 0.03 0.03 0.03 0.03 0.04 0.05 0.04 0.03 0.02 0.02 0.03 0.05 0.08 0.11 0.09
0.02 0.00 0.00 0.01 0.01 0.00 0.01 0.01 0.01 0.00 0.00 0.00 0.00 0.00 0.00 0.00 0.00 0.00 0.00 0.00 0.00 0.00 0.00 0.00 0.01 0.01 0.01 0.01 0.01 0.01 0.02 0.02 0.02 0.03 0.04 0.04 0.04 0.04 0.03 0.03 0.05 0.07 0.11 0.12
0.04 0.01 0.02 0.03 0.00 0.00 0.00 0.00 0.00 0.01 0.00 0.01 0.00 0.01 0.01 0.00 0.01 0.01 0.00 0.00 0.00 0.00 0.00 0.01 0.01 0.01 0.01 0.01 0.01 0.01 0.01 0.01 0.01 0.02 0.03 0.03 0.03 0.04 0.04 0.05 0.06 0.07 0.08 0.13
0.08 0.05 0.06 0.02 0.00 0.00 0.00 0.00 0.00 0.00 0.01 0.01 0.00 0.00 0.00 0.01 0.02 0.01 0.00 0.00 0.00 0.00 0.01 0.01 0.01 0.01 0.01 0.01 0.01 0.02 0.01 0.01 0.01 0.01 0.02 0.02 0.02 0.03 0.05 0.06 0.08 0.08 0.07 0.10
0.10 0.07 0.03 0.00 0.00 0.00 0.00 0.00 0.00 0.00 0.00 0.00 0.00 0.00 0.00 0.01 0.01 0.01 0.01 0.01 0.01 0.01 0.01 0.01 0.01 0.01 0.01 0.01 0.01 0.02 0.02 0.01 0.01 0.02 0.02 0.02 0.02 0.03 0.05 0.08 0.08 0.08 0.08 0.10
0.13 0.09 0.04 0.01 0.00 0.00 0.00 0.00 0.00 0.00 0.00 0.00 0.00 0.00 0.00 0.00 0.01 0.01 0.01 0.01 0.01 0.01 0.02 0.01 0.01 0.01 0.01 0.01 0.01 0.01 0.01 0.02 0.02 0.02 0.03 0.03 0.03 0.03 0.04 0.07 0.08 0.08 0.09 0.10
0.11 0.09 0.04 0.01 0.00 0.00 0.01 0.01 0.00 0.00 0.00 0.00 0.01 0.01 0.01 0.01 0.01 0.02 0.02 0.01 0.02 0.02 0.02 0.01 0.01 0.01 0.01 0.01 0.01 0.02 0.02 0.01 0.02 0.02 0.03 0.03 0.04 0.03 0.04 0.06 0.09 0.09 0.10 0.11
0.05 0.07 0.04 0.01 0.00 0.01 0.01 0.00 0.00 0.00 0.00 0.00 0.00 0.00 0.00 0.01 0.01 0.02 0.01 0.01 0.02 0.03 0.03 0.02 0.02 0.01 0.02 0.01 0.02 0.02 0.02 0.02 0.02 0.02 0.03 0.03 0.04 0.05 0.04 0.06 0.09 0.11 0.12 0.13
0.03 0.03 0.01 0.00 0.00 0.00 0.00 0.00 0.00 0.00 0.00 0.00 0.00 0.00 0.00 0.00 0.01 0.01 0.02 0.02 0.02 0.03 0.03 0.03 0.03 0.02 0.02 0.03 0.04 0.02 0.02 0.02 0.02 0.02 0.03 0.04 0.04 0.05 0.07 0.08 0.10 0.12 0.13 0.15
0.02 0.01 0.01 0.00 0.00 0.00 0.00 0.00 0.00 0.00 0.00 0.00 0.00 0.00 0.00 0.00 0.00 0.01 0.02 0.02 0.02 0.03 0.03 0.04 0.04 0.04 0.04 0.05 0.05 0.03 0.02 0.02 0.02 0.03 0.04 0.04 0.04 0.05 0.07 0.11 0.12 0.13 0.14 0.15
0.01 0.01 0.01 0.00 0.00 0.00 0.00 0.00 0.00 0.00 0.00 0.00 0.00 0.00 0.00 0.00 0.00 0.01 0.01 0.02 0.02 0.02 0.02 0.03 0.05 0.05 0.05 0.06 0.06 0.04 0.03 0.02 0.02 0.03 0.05 0.04 0.04 0.05 0.07 0.10 0.12 0.14 0.14 0.14
0.02 0.01 0.01 0.01 0.00 0.00 0.00 0.00 0.00 0.00 0.00 0.00 0.00 0.00 0.00 0.00 0.01 0.01 0.01 0.01 0.01 0.01 0.01 0.01 0.03 0.05 0.04 0.04 0.04 0.04 0.03 0.03 0.02 0.03 0.04 0.03 0.04 0.05 0.07 0.09 0.10 0.12 0.14 0.16
0.02 0.02 0.01 0.01 0.01 0.00 0.00 0.00 0.00 0.00 0.00 0.00 0.00 0.00 0.00 0.01 0.01 0.01 0.01 0.01 0.01 0.01 0.01 0.01 0.02 0.02 0.03 0.04 0.04 0.04 0.04 0.03 0.03 0.03 0.03 0.03 0.04 0.06 0.08 0.09 0.10 0.11 0.12 0.14
0.01 0.01 0.01 0.01 0.01 0.00 0.00 0.00 0.00 0.00 0.00 0.00 0.00 0.00 0.01 0.01 0.01 0.01 0.01 0.01 0.01 0.01 0.00 0.00 0.01 0.02 0.02 0.03 0.04 0.05 0.04 0.05 0.05 0.04 0.03 0.03 0.03 0.05 0.07 0.10 0.11 0.12 0.12 0.14
0.00 0.00 0.00 0.00 0.00 0.00 0.00 0.00 0.00 0.00 0.00 0.00 0.00 0.01 0.01 0.01 0.01 0.01 0.01 0.01 0.01 0.01 0.00 0.00 0.01 0.01 0.02 0.02 0.03 0.03 0.03 0.04 0.05 0.05 0.03 0.02 0.03 0.05 0.07 0.09 0.11 0.12 0.13 0.16
0.00 0.00 0.00 0.00 0.00 0.00 0.00 0.00 0.00 0.00 0.00 0.00 0.00 0.01 0.01 0.01 0.01 0.01 0.01 0.01 0.01 0.01 0.00 0.00 0.00 0.01 0.02 0.03 0.03 0.02 0.02 0.03 0.04 0.04 0.03 0.02 0.03 0.04 0.07 0.08 0.09 0.11 0.13 0.15
0.01 0.01 0.01 0.00 0.00 0.00 0.00 0.00 0.00 0.00 0.00 0.00 0.01 0.01 0.01 0.01 0.01 0.01 0.01 0.01 0.01 0.00 0.00 0.00 0.00 0.01 0.01 0.02 0.03 0.03 0.02 0.02 0.03 0.03 0.03 0.03 0.03 0.04 0.06 0.07 0.08 0.10 0.12 0.14
0.01 0.01 0.01 0.01 0.00 0.00 0.00 0.00 0.00 0.00 0.00 0.01 0.01 0.01 0.01 0.01 0.01 0.01 0.01 0.01 0.01 0.00 0.00 0.00 0.00 0.01 0.02 0.02 0.02 0.03 0.03 0.03 0.02 0.02 0.02 0.03 0.03 0.03 0.05 0.06 0.08 0.10 0.12 0.14
0.00 0.00 0.00 0.00 0.00 0.00 0.00 0.00 0.00 0.00 0.01 0.01 0.01 0.02 0.01 0.01 0.01 0.01 0.01 0.01 0.00 0.00 0.00 0.00 0.00 0.01 0.02 0.02 0.02 0.02 0.03 0.03 0.02 0.02 0.02 0.03 0.03 0.04 0.05 0.06 0.09 0.11 0.11 0.11
0.00 0.00 0.00 0.00 0.00 0.00 0.00 0.00 0.00 0.01 0.01 0.01 0.01 0.01 0.01 0.01 0.01 0.01 0.01 0.01 0.00 0.00 0.00 0.00 0.01 0.01 0.02 0.02 0.02 0.02 0.02 0.03 0.03 0.03 0.03 0.03 0.03 0.03 0.05 0.07 0.10 0.11 0.11 0.10
0.00 0.00 0.00 0.00 0.00 0.00 0.00 0.01 0.01 0.01 0.01 0.02 0.02 0.02 0.02 0.01 0.01 0.01 0.01 0.01 0.00 0.00 0.00 0.01 0.01 0.02 0.02 0.02 0.02 0.02 0.02 0.02 0.02 0.03 0.03 0.03 0.03 0.03 0.05 0.06 0.09 0.10 0.11 0.10
0.01 0.01 0.01 0.01 0.00 0.00 0.01 0.01 0.01 0.01 0.01 0.02 0.02 0.02 0.01 0.01 0.01 0.01 0.01 0.01 0.01 0.01 0.01 0.01 0.01 0.02 0.03 0.03 0.03 0.02 0.02 0.02 0.02 0.02 0.02 0.02 0.02 0.03 0.04 0.05 0.07 0.08 0.09 0.09
0.01 0.01 0.01 0.01 0.01 0.01 0.01 0.01 0.01 0.01 0.02 0.02 0.02 0.02 0.01 0.01 0.01 0.01 0.01 0.00 0.01 0.01 0.01 0.01 0.02 0.03 0.03 0.03 0.03 0.02 0.02 0.02 0.02 0.02 0.02 0.02 0.02 0.02 0.03 0.04 0.06 0.07 0.07 0.08
0.01 0.01 0.01 0.01 0.01 0.01 0.01 0.01 0.01 0.01 0.02 0.02 0.02 0.02 0.02 0.01 0.01 0.01 0.01 0.01 0.01 0.02 0.02 0.02 0.02 0.03 0.03 0.04 0.03 0.03 0.02 0.02 0.02 0.02 0.02 0.02 0.02 0.02 0.03 0.03 0.05 0.06 0.06 0.07
0.01 0.01 0.01 0.01 0.01 0.01 0.01 0.01 0.01 0.01 0.02 0.02 0.02 0.01 0.01 0.02 0.02 0.01 0.01 0.01 0.01 0.02 0.02 0.02 0.02 0.03 0.03 0.04 0.03 0.03 0.02 0.02 0.02 0.03 0.03 0.03 0.02 0.03 0.03 0.03 0.04 0.05 0.06 0.07
0.01 0.01 0.01 0.01 0.01 0.01 0.01 0.01 0.01 0.01 0.01 0.02 0.01 0.01 0.01 0.02 0.02 0.02 0.02 0.02 0.01 0.02 0.02 0.02 0.02 0.02 0.03 0.03 0.03 0.03 0.03 0.03 0.03 0.03 0.03 0.03 0.03 0.03 0.02 0.03 0.05 0.06 0.07 0.08
0.01 0.01 0.01 0.01 0.01 0.01 0.01 0.01 0.02 0.01 0.02 0.02 0.02 0.01 0.02 0.02 0.02 0.02 0.02 0.02 0.02 0.02 0.02 0.02 0.02 0.03 0.03 0.03 0.03 0.03 0.03 0.03 0.03 0.03 0.03 0.03 0.03 0.03 0.03 0.04 0.05 0.07 0.08 0.08
MSLP
1010.49 1010.88 1011.15 1011.29 1011.28 1011.13 1010.83 1010.40 1009.86 1009.25 1008.60 1007.97 1007.39 1006.92 1006.59 1006.40 1006.37 1006.48 1006.71 1007.01 1007.34 1007.66 1007.93 1008.11 1008.20 1008.17 1008.03 1007.78 1007.45 1007.06 1006.63 1006.19 1005.79 1005.44 1005.18 1005.04 1005.02 1005.12 1005.33 1005.62 1005.95 1006.29 1006.57 1006.78
1010.51 1010.76 1010.85 1010.80 1010.61 1010.29 1009.88 1009.39 1008.85 1008.29 1007.75 1007.25 1006.82 1006.48 1006.25 1006.15 1006.16 1006.27 1006.48 1006.75 1007.06 1007.36 1007.62 1007.82 1007.94 1007.94 1007.84 1007.63 1007.33 1006.95 1006.53 1006.10 1005.69 1005.35 1005.11 1004.97 1004.96 1005.07 1005.27 1005.53 1005.81 1006.08 1006.29 1006.41
1010.33 1010.40 1010.32 1010.07 1009.70 1009.24 1008.73 1008.20 1007.69 1007.21 1006.79 1006.44 1006.18 1005.99 1005.89 1005.87 1005.93 1006.07 1006.26 1006.51 1006.77 1007.04 1007.29 1007.48 1007.61 1007.63 1007.56 1007.38 1007.11 1006.76 1006.37 1005.97 1005.59 1005.28 1005.05 1004.94 1004.93 1005.03 1005.20 1005.41 1005.63 1005.81 1005.93 1005.96
1009.91 1009.81 1009.54 1009.13 1008.61 1008.05 1007.48 1006.96 1006.50 1006.13 1005.85 1005.67 1005.57 1005.54 1005.56 1005.64 1005.75 1005.91 1006.09 1006.29 1006.51 1006.74 1006.94 1007.11 1007.22 1007.25 1007.19 1007.03 1006.79 1006.48 1006.13 1005.77 1005.44 1005.16 1004.96 1004.86 1004.86 1004.94 1005.07 1005.21 1005.35 1005.44 1005.46 1005.40
1009.30 1009.04 1008.61 1008.07 1007.47 1006.85 1006.28 1005.81 1005.44 1005.20 1005.07 1005.05 1005.11 1005.22 1005.36 1005.51 1005.67 1005.82 1005.98 1006.14 1006.30 1006.45 1006.60 1006.71 1006.79 1006.80 1006.73 1006.59 1006.38 1006.10 1005.79 1005.48 1005.19 1004.96 1004.79 1004.71 1004.70 1004.75 1004.83 1004.91 1004.96 1004.95 1004.88 1004.73
1008.60 1008.20 1007.67 1007.06 1006.43 1005.83 1005.31 1004.92 1004.67 1004.57 1004.59 1004.71 1004.90 1005.12 1005.34 1005.53 1005.70 1005.84 1005.95 1006.04 1006.12 1006.20 1006.27 1006.32 1006.34 1006.31 1006.23 1006.09 1005.89 1005.64 1005.37 1005.10 1004.86 1004.66 1004.52 1004.45 1004.43 1004.45 1004.47 1004.48 1004.45 1004.36 1004.20 1003.99
1007.93 1007.44 1006.86 1006.25 1005.65 1005.13 1004.72 1004.45 1004.33 1004.35 1004.50 1004.73 1005.00 1005.27 1005.51 1005.71 1005.85 1005.93 1005.97 1005.99 1005.98 1005.97 1005.96 1005.93 1005.89 1005.81 1005.70 1005.55 1005.35 1005.12 1004.88 1004.65 1004.44 1004.27 1004.15 1004.08 1004.04 1004.02 1003.99 1003.94 1003.83 1003.68 1003.46 1003.22
1007.40 1006.88 1006.33 1005.78 1005.28 1004.87 1004.59 1004.46 1004.46 1004.59 1004.81 1005.09 1005.39 1005.65 1005.86 1006.00 1006.07 1006.07 1006.02 1005.94 1005.84 1005.74 1005.64 1005.54 1005.43 1005.31 1005.17 1004.99 1004.79 1004.58 1004.35 1004.14 1003.95 1003.80 1003.69 1003.61 1003.55 1003.49 1003.41 1003.30 1003.14 1002.94 1002.69 1002.43
1007.11 1006.63 1006.15 1005.72 1005.35 1005.09 1004.96 1004.94 1005.04 1005.23 1005.48 1005.75 1005.99 1006.19 1006.31 1006.35 1006.30 1006.20 1006.04 1005.86 1005.66 1005.47 1005.30 1005.13 1004.97 1004.80 1004.63 1004.43 1004.23 1004.01 1003.80 1003.60 1003.42 1003.27 1003.15 1003.06 1002.97 1002.87 1002.76 1002.60 1002.41 1002.18 1001.92 1001.66
1007.11 1006.72 1006.36 1006.07 1005.86 1005.75 1005.74 1005.82 1005.97 1006.16 1006.37 1006.56 1006.70 1006.77 1006.75 1006.65 1006.47 1006.24 1005.97 1005.69 1005.41 1005.15 1004.91 1004.69 1004.49 1004.29 1004.08 1003.87 1003.66 1003.44 1003.22 1003.02 1002.85 1002.69 1002.56 1002.45 1002.33 1002.20 1002.05 1001.87 1001.65 1001.41 1001.16 1000.92
1007.40 1007.13 1006.92 1006.78 1006.72 1006.73 1006.80 1006.93 1007.08 1007.22 1007.34 1007.39 1007.38 1007.28 1007.09 1006.82 1006.50 1006.14 1005.77 1005.40 1005.06 1004.74 1004.46 1004.20 1003.97 1003.74 1003.52 1003.29 1003.07 1002.84 1002.62 1002.42 1002.24 1002.07 1001.93 1001.79 1001.65 1001.50 1001.32 1001.12 1000.90 1000.67 1000.43 1000.22
1007.95 1007.81 1007.74 1007.73 1007.78 1007.87 1007.98 1008.10 1008.19 1008.23 1008.20 1008.10 1007.90 1007.61 1007.25 1006.82 1006.36 1005.89 1005.43 1004.99 1004.59 1004.24 1003.93 1003.65 1003.39 1003.15 1002.91 1002.68 1002.44 1002.21 1001.98 1001.78 1001.59 1001.41 1001.26 1001.10 1000.95 1000.78 1000.59 1000.39 1000.17 999.95 999.74 999.56
1008.66 1008.64 1008.68 1008.77 1008.88 1009.00 1009.10 1009.16 1009.14 1009.05 1008.86 1008.57 1008.18 1007.72 1007.19 1006.63 1006.05 1005.49 1004.95 1004.47 1004.03 1003.65 1003.32 1003.02 1002.75 1002.49 1002.24 1001.99 1001.75 1001.51 1001.29 1001.08 1000.89 1000.71 1000.55 1000.39 1000.23 1000.06 999.88 999.67 999.47 999.26 999.07 998.92
1009.44 1009.52 1009.64 1009.77 1009.90 1009.99 1010.02 1009.98 1009.83 1009.58 1009.23 1008.77 1008.21 1007.60 1006.94 1006.26 1005.60 1004.97 1004.38 1003.86 1003.39 1002.99 1002.63 1002.31 1002.02 1001.75 1001.49 1001.23 1000.98 1000.75 1000.52 1000.32 1000.14 999.97 999.82 999.67 999.51 999.35 999.17 998.99 998.79 998.60 998.43 998.29
1010.21 1010.35 1010.49 1010.62 1010.71 1010.73 1010.66 1010.49 1010.20 1009.80 1009.29 1008.69 1008.00 1007.27 1006.52 1005.77 1005.04 1004.37 1003.75 1003.19 1002.70 1002.27 1001.88 1001.54 1001.22 1000.92 1000.64 1000.37 1000.13 999.90 999.69 999.50 999.34 999.20 999.06 998.93 998.80 998.65 998.49 998.32 998.14 997.97 997.81 997.68
1010.90 1011.05 1011.17 1011.24 1011.25 1011.16 1010.97 1010.67 1010.24 1009.71 1009.08 1008.36 1007.59 1006.78 1005.97 1005.18 1004.42 1003.72 1003.07 1002.48 1001.96 1001.49 1001.06 1000.68 1000.33 1000.00 999.70 999.43 999.19 998.98 998.79 998.64 998.51 998.40 998.29 998.19 998.08 997.96 997.82 997.67 997.50 997.34 997.19 997.06
1011.46 1011.57 1011.62 1011.60 1011.50 1011.29 1010.96 1010.53 1009.99 1009.35 1008.62 1007.84 1007.02 1006.18 1005.34 1004.53 1003.75 1003.02 1002.35 1001.72 1001.16 1000.64 1000.17 999.74 999.35 999.00 998.69 998.42 998.19 998.01 997.86 997.74 997.66 997.59 997.52 997.45 997.37 997.27 997.15 997.01 996.85 996.70 996.55 996.41
1011.84 1011.87 1011.83 1011.69 1011.45 1011.11 1010.66 1010.11 1009.47 1008.76 1007.98 1007.16 1006.32 1005.47 1004.63 1003.81 1003.02 1002.27 1001.56 1000.89 1000.28 999.71 999.18 998.71 998.29 997.92 997.61 997.35 997.16 997.01 996.91 996.85 996.81 996.78 996.75 996.71 996.65 996.57 996.45 996.32 996.17 996.01 995.86 995.72
1012.04 1011.96 1011.78 1011.51 1011.14 1010.67 1010.11 1009.47 1008.76 1008.00 1007.20 1006.36 1005.52 1004.67 1003.83 1003.01 1002.20 1001.42 1000.67 999.96 999.29 998.66 998.09 997.58 997.14 996.77 996.47 996.25 996.10 996.01 995.97 995.96 995.97 995.98 995.99 995.97 995.92 995.84 995.72 995.59 995.43 995.27 995.12 994.97
1012.05 1011.84 1011.53 1011.12 1010.62 1010.03 1009.38 1008.67 1007.91 1007.12 1006.30 1005.47 1004.63 1003.79 1002.94 1002.10 1001.27 1000.45 999.65 998.89 998.16 997.49 996.89 996.36 995.92 995.57 995.31 995.14 995.05 995.02 995.04 995.08 995.14 995.19 995.21 995.20 995.15 995.06 994.94 994.79 994.63 994.47 994.32 994.18
1011.91 1011.56 1011.10 1010.56 1009.95 1009.27 1008.54 1007.78 1006.98 1006.17 1005.35 1004.51 1003.67 1002.81 1001.95 1001.08 1000.21 999.34 998.50 997.68 996.91 996.21 995.59 995.06 994.64 994.33 994.13 994.02 994.00 994.04 994.12 994.22 994.31 994.38 994.42 994.40 994.34 994.24 994.10 993.94 993.78 993.62 993.49 993.37
1011.66 1011.16 1010.58 1009.93 1009.22 1008.46 1007.68 1006.87 1006.05 1005.22 1004.38 1003.53 1002.66 1001.78 1000.88 999.96 999.04 998.12 997.21 996.35 995.55 994.83 994.21 993.71 993.33 993.08 992.94 992.92 992.97 993.08 993.22 993.36 993.48 993.56 993.59 993.56 993.49 993.37 993.22 993.06 992.91 992.78 992.67 992.60
1011.35 1010.72 1010.03 1009.29 1008.50 1007.69 1006.86 1006.02 1005.17 1004.32 1003.45 1002.57 1001.66 1000.73 999.77 998.79 997.80 996.82 995.86 994.96 994.14 993.42 992.82 992.35 992.03 991.84 991.78 991.83 991.95 992.13 992.31 992.49 992.63 992.71 992.74 992.70 992.61 992.49 992.35 992.21 992.08 991.99 991.95 991.95
1011.03 1010.30 1009.53 1008.72 1007.88 1007.03 1006.16 1005.29 1004.41 1003.52 1002.61 1001.68 1000.71 999.71 998.67 997.62 996.56 995.52 994.51 993.58 992.74 992.03 991.46 991.04 990.78 990.66 990.67 990.79 990.97 991.20 991.42 991.62 991.77 991.86 991.88 991.85 991.76 991.65 991.54 991.44 991.37 991.35 991.39 991.49
1010.75 1009.96 1009.13 1008.28 1007.40 1006.52 1005.63 1004.73 1003.81 1002.88 1001.91 1000.90 999.86 998.77 997.66 996.52 995.39 994.29 993.25 992.29 991.46 990.76 990.23 989.86 989.65 989.60 989.67 989.84 990.07 990.32 990.57 990.79 990.95 991.05 991.08 991.06 991.00 990.93 990.87 990.84 990.85 990.93 991.09 991.30
1010.56 1009.72 1008.86 1007.99 1007.10 1006.20 1005.28 1004.35 1003.38 1002.39 1001.35 1000.27 999.14 997.97 996.77 995.56 994.37 993.22 992.15 991.19 990.36 989.70 989.20 988.87 988.72 988.71 988.82 989.03 989.29 989.57 989.84 990.06 990.24 990.35 990.41 990.42 990.42 990.41 990.43 990.49 990.62 990.82 991.09 991.44
1010.44 1009.60 1008.73 1007.85 1006.95 1006.03 1005.09 1004.11 1003.10 1002.03 1000.92 999.76 998.55 997.30 996.04 994.77 993.54 992.37 991.29 990.34 989.54 988.90 988.45 988.17 988.05 988.09 988.23 988.46 988.74 989.03 989.30 989.54 989.73 989.87 989.97 990.04 990.10 990.18 990.30 990.48 990.73 991.05 991.45 991.92
Thickness
5498 5507 5502 5494 5493 5493 5488 5489 5486 5507 5516 5527 5526 5522 5520 5517 5513 5510 5505 5500 5495 5489 5484 5479 5475 5470 5467 5463 5459 5456 5453 5450 5448 5446 5445 5444 5443 5442 5443 5444 5446 5449 5452 5455
5479 5492 5492 5489 5493 5492 5490 5489 5490 5495 5506 5519 5516 5512 5509 5505 5501 5497 5494 5490 5485 5479 5474 5468 5463 5460 5456 5451 5448 5445 5442 5440 5439 5438 5437 5435 5434 5435 5436 5437 5440 5443 5446 5450
5464 5479 5473 5474 5496 5494 5491 5493 5490 5488 5502 5507 5502 5500 5496 5492 5489 5485 5480 5476 5471 5466 5460 5456 5451 5448 5443 5440 5437 5434 5432 5432 5431 5429 5428 5427 5427 5427 5428 5431 5434 5438 5442 5445
5448 5452 5448 5488 5503 5501 5495 5496 5494 5494 5495 5493 5489 5487 5485 5480 5475 5469 5465 5461 5457 5451 5447 5443 5440 5436 5432 5429 5426 5424 5423 5423 5421 5420 5419 5419 5419 5420 5422 5424 5428 5432 5437 5441
5435 5435 5449 5479 5490 5488 5481 5481 5486 5482 5482 5480 5478 5473 5470 5468 5461 5455 5451 5447 5442 5438 5435 5432 5428 5424 5421 5418 5416 5414 5414 5413 5412 5411 5411 5411 5412 5413 5416 5419 5424 5428 5433 5438
5426 5427 5436 5470 5475 5477 5471 5461 5471 5469 5466 5465 5460 5446 5451 5453 5448 5443 5439 5435 5431 5427 5423 5420 5417 5413 5410 5408 5406 5404 5404 5403 5403 5403 5403 5405 5407 5408 5411 5414 5419 5424 5430 5435
5416 5419 5433 5457 5460 5460 5444 5445 5455 5454 5450 5447 5440 5435 5436 5437 5434 5430 5426 5423 5419 5415 5411 5408 5405 5402 5399 5397 5396 5395 5395 5395 5395 5396 5396 5399 5401 5404 5407 5411 5415 5420 5426 5433
5409 5409 5423 5443 5443 5436 5434 5438 5437 5436 5433 5430 5427 5426 5424 5422 5419 5417 5413 5410 5407 5402 5399 5397 5393 5390 5389 5387 5387 5387 5386 5386 5387 5388 5390 5393 5395 5399 5402 5406 5411 5417 5423 5431
5412 5419 5430 5430 5428 5428 5426 5423 5421 5418 5417 5415 5412 5410 5410 5408 5406 5403 5400 5397 5394 5390 5388 5386 5383 5380 5378 5379 5378 5377 5377 5378 5379 5382 5383 5386 5389 5393 5398 5402 5407 5413 5419 5427
5403 5413 5417 5416 5415 5413 5411 5408 5407 5405 5402 5400 5397 5397 5395 5393 5392 5389 5387 5384 5381 5379 5377 5375 5373 5371 5369 5370 5369 5368 5368 5370 5372 5374 5378 5381 5384 5388 5392 5397 5403 5409 5416 5423
5390 5399 5401 5402 5400 5398 5397 5395 5394 5392 5389 5386 5383 5382 5381 5380 5378 5376 5375 5372 5369 5367 5366 5365 5364 5363 5362 5360 5360 5359 5360 5362 5365 5368 5371 5375 5380 5383 5388 5393 5398 5405 5412 5418
5378 5383 5381 5383 5384 5384 5382 5381 5379 5376 5375 5374 5371 5369 5368 5367 5365 5363 5362 5360 5358 5356 5355 5355 5355 5354 5353 5352 5350 5351 5353 5355 5358 5360 5364 5369 5374 5380 5386 5390 5396 5402 5409 5415
5371 5372 5370 5371 5371 5369 5368 5367 5366 5363 5362 5360 5359 5357 5356 5354 5353 5352 5350 5348 5347 5346 5346 5346 5346 5346 5345 5344 5344 5344 5345 5347 5351 5354 5358 5362 5368 5373 5379 5387 5393 5399 5405 5411
5360 5359 5357 5358 5355 5355 5354 5354 5353 5352 5350 5348 5347 5346 5344 5343 5342 5340 5339 5338 5337 5337 5338 5338 5338 5338 5338 5338 5337 5338 5339 5342 5345 5348 5352 5356 5361 5366 5372 5379 5385 5392 5399 5406
5345 5344 5342 5343 5343 5343 5342 5340 5338 5337 5337 5336 5335 5333 5332 5330 5330 5330 5329 5329 5329 5329 5330 5330 5331 5331 5331 5331 5331 5332 5334 5336 5339 5343 5347 5351 5356 5361 5367 5372 5377 5384 5391 5399
5331 5332 5332 5331 5331 5330 5329 5327 5325 5325 5325 5325 5324 5322 5321 5320 5319 5320 5320 5319 5319 5320 5321 5321 5322 5323 5323 5324 5325 5327 5329 5332 5335 5338 5341 5346 5350 5355 5361 5365 5371 5377 5383 5390
5316 5318 5319 5318 5317 5316 5315 5315 5314 5313 5313 5313 5312 5312 5311 5311 5311 5311 5311 5311 5312 5313 5313 5314 5314 5316 5317 5318 5319 5321 5323 5326 5331 5333 5336 5340 5344 5349 5354 5359 5365 5370 5376 5383
5307 5306 5306 5305 5304 5304 5304 5304 5303 5302 5302 5302 5302 5302 5302 5301 5302 5303 5303 5304 5305 5306 5306 5307 5308 5309 5310 5312 5314 5316 5318 5321 5324 5327 5331 5335 5339 5344 5349 5354 5360 5366 5371 5378
5298 5297 5296 5296 5295 5294 5293 5293 5293 5293 5293 5293 5293 5294 5294 5294 5295 5295 5296 5297 5297 5298 5300 5300 5302 5303 5304 5306 5309 5311 5313 5316 5320 5323 5326 5331 5336 5340 5345 5350 5355 5361 5367 5373
5287 5287 5286 5285 5285 5284 5284 5285 5285 5285 5285 5286 5286 5287 5287 5288 5288 5289 5289 5289 5290 5291 5293 5294 5295 5297 5299 5301 5305 5307 5309 5312 5315 5318 5322 5326 5331 5336 5341 5346 5351 5357 5363 5368
5276 5277 5276 5276 5276 5276 5276 5276 5277 5277 5279 5279 5279 5280 5281 5282 5282 5282 5283 5284 5287 5287 5288 5290 5291 5292 5295 5298 5302 5303 5306 5308 5312 5315 5319 5323 5328 5333 5338 5343 5349 5355 5360 5365
5267 5268 5268 5268 5268 5269 5269 5270 5270 5271 5272 5273 5274 5274 5275 5276 5277 5278 5279 5279 5281 5283 5284 5285 5286 5289 5293 5296 5298 5300 5303 5306 5309 5312 5316 5321 5326 5331 5336 5341 5347 5352 5357 5363
5260 5261 5261 5262 5262 5262 5264 5264 5265 5266 5267 5268 5269 5269 5270 5271 5272 5273 5275 5277 5277 5279 5281 5282 5284 5288 5292 5293 5296 5298 5301 5304 5307 5311 5315 5319 5324 5329 5335 5340 5345 5350 5356 5361
5254 5255 5256 5256 5257 5258 5259 5260 5261 5262 5262 5263 5264 5265 5266 5267 5269 5270 5271 5273 5275 5277 5278 5280 5283 5286 5289 5290 5293 5295 5298 5302 5306 5309 5314 5319 5324 5329 5334 5339 5344 5349 5354 5360
5248 5249 5250 5250 5252 5253 5254 5256 5256 5258 5259 5260 5261 5263 5263 5264 5265 5267 5268 5270 5272 5274 5276 5278 5281 5284 5286 5288 5291 5294 5297 5301 5305 5309 5313 5318 5323 5328 5333 5338 5343 5348 5354 5360
5243 5243 5244 5245 5246 5247 5249 5250 5251 5253 5254 5257 5259 5260 5261 5262 5264 5265 5266 5268 5270 5273 5274 5276 5278 5281 5284 5287 5290 5294 5297 5301 5305 5309 5314 5318 5323 5328 5333 5338 5343 5348 5355 5361
5238 5239 5240 5242 5243 5243 5244 5245 5246 5248 5250 5252 5255 5257 5259 5261 5262 5264 5265 5267 5269 5271 5273 5275 5278 5280 5283 5286 5290 5293 5297 5301 5306 5310 5314 5319 5323 5328 5333 5338 5344 5349 5355 5360